Weather in Zheleznogorsk

Russia / Krasnoyarsk Krai     56°15′10″N   93°31′56″E
temp.,
°C
wind,
m/s
gust,
m/s
humid.,
%
clouds,
%
prec.,
mm/h
press.,
hPa
HPBL,
m
29 november, mon
mon2901:00−6wsw71484100 1.1 1030937
04:00−6wsw71485100 0.1 1031751
07:00−7wsw6148579 0.1 1033622
10:00−7wsw61385100 0.0 1034659
13:00−5wsw51185100 0.0 1033737
16:00−5wsw41086100 0.1 1033565
19:00−5sw31095100 0.3 1032602
22:00−5sw31195100 0.6 1030620
30 november, tue
tue3001:00−4sw31088100 0.8 1029408
04:00−5sw398498 0.0 1028311
07:00−5sw3108196 0.0 1027350
10:00−7sw3686100 0.0 1026112
13:00−2wsw41470100 0.0 1024799
16:00−2sw51366100 0.0 1023560
19:00−3sw51469100 0.0 1023687
22:00−2wsw71664100 0.0 1023818
1 december, wed
wed101:00−4wsw7176472 0.0 1023684
04:00−5wsw7176871 0.0 1023677
07:00−6w6157699 0.0 1025578
10:00−7wsw51285100 0.0 1027507
13:00−5wsw41085100 0.0 1027516
16:00−5sw3881100 0.0 1028320
19:00−7sse2287100 0.0 102733
22:00−6s2584100 0.0 102491
2 december, thu
thu201:00−4sw31277100 0.0 1022329
04:00−2wsw51365100 0.1 1022556
07:00−2wsw51566100 0.1 1021616
10:00−3sw31170100 0.0 1021416
13:000wsw41265100 0.0 1020650
16:00−1sw31167100 0.0 1020355
19:00−2sw31169100 0.0 1020310
22:00−3ssw2573100 0.0 101992
3 december, fri
fri301:00−4s2475100 0.0 101958
04:00−6s347658 0.0 101852
07:00−6s3574100 0.0 101662
10:00−2s31263100 0.0 1014254
13:00+2ssw4135698 0.0 1011358
16:00+1s3959100 0.0 1009149
19:00+3ssw51644100 0.0 1005369
22:00+2sw71947100 0.0 1006920